Weather History for KHAF - June, 2013

Change the Weather History Date:

Thursday, June 13, 2013

  Actual Average (KSFO) Record (KSFO)
Temperature  
Mean Temperature 54 °F 62 °F  
Max Temperature 59 °F 70 °F 95 °F (1966)
Min Temperature 48 °F 54 °F 48 °F (1968)
Degree Days  
Heating Degree Days 12 4  
Month to date heating degree days 52  
Since 1 June heating degree days 52  
Since 1 July heating degree days 2600  
Cooling Degree Days 0 1  
Month to date cooling degree days 10  
Year to date cooling degree days 29  
Since 1 June cooling degree days 10  
Growing Degree Days 4 (Base 50)    
Moisture  
Dew Point 48 °F    
Average Humidity 80    
Maximum Humidity 94    
Minimum Humidity 67    
Precipitation  
Precipitation 0.00 in 0.01 in 0.01 in (2009)
Month to date precipitation 0.08  
Year to date precipitation 13.05  
Since 1 July precipitation 20.62  
Sea Level Pressure  
Sea Level Pressure 30.09 in    
Wind  
Wind Speed 14 mph (NNW)    
Max Wind Speed 22 mph    
Max Gust Speed 29 mph    
Visibility 5 miles    
Events      
T = Trace of Precipitation, MM = Missing Value Source: NWS Daily Summary

Daily Weather History Graph

Daily Weather History Graph

Search for Another Location

Airport or City:

Trip Planner

Search our weather history database for the weather conditions in past years. The results will help you decide how hot, cold, wet, or windy it might be!

Date:

Astronomy

Jun. 13, 2013 Rise Set
Actual Time 5:48 AM PDT 8:32 PM PDT
Civil Twilight 5:17 AM PDT 9:03 PM PDT
Nautical Twilight 4:38 AM PDT 9:42 PM PDT
Astronomical Twilight 3:54 AM PDT 10:26 PM PDT
Moon 10:25 AM PDT (6/13) 11:46 PM PDT (6/13)
Length of Visible Light 15h 46m
Length of Day
14h 43m
Waxing Crescent, 22% of the Moon is Illuminated
Jun 13
Waxing Crescent
Jun 16
First Quarter
Jun 23
Full
Jun 29
Last Quarter
Jul 8
New

Hourly Weather History & Observations

Time (PDT) Temp. Dew Point Humidity Pressure Visibility Wind Dir Wind Speed Gust Speed Precip Events Conditions
12:15 AM 51.8 °F 48.2 °F 88% 30.07 in 5.0 mi NNW 17.3 mph 21.9 mph N/A   Mist
12:35 AM 51.8 °F 48.2 °F 88% 30.07 in 5.0 mi NNW 13.8 mph 19.6 mph N/A   Mist
12:55 AM 51.8 °F 48.2 °F 88% 30.07 in 5.0 mi North 13.8 mph 19.6 mph N/A   Mist
1:15 AM 51.8 °F 48.2 °F 88% 30.07 in 5.0 mi NNW 10.4 mph - N/A   Mist
1:35 AM 51.8 °F 48.2 °F 88% 30.07 in 5.0 mi NNW 10.4 mph 16.1 mph N/A   Mist
1:55 AM 51.8 °F 48.2 °F 88% 30.07 in 5.0 mi NNW 13.8 mph - N/A   Mist
2:15 AM 51.8 °F 48.2 °F 88% 30.07 in 5.0 mi NNW 12.7 mph - N/A   Mist
2:35 AM 51.8 °F 48.2 °F 88% 30.07 in 5.0 mi NNW 13.8 mph 19.6 mph N/A   Mist
2:55 AM 51.8 °F 48.2 °F 88% 30.07 in 5.0 mi NNW 11.5 mph - N/A   Mist
3:15 AM 51.8 °F 48.2 °F 88% 30.07 in 5.0 mi North 11.5 mph 18.4 mph N/A   Mist
3:35 AM 51.8 °F 48.2 °F 88% 30.07 in 5.0 mi North 11.5 mph 16.1 mph N/A   Mist
3:55 AM 51.8 °F 48.2 °F 88% 30.06 in 5.0 mi NNW 15.0 mph 21.9 mph N/A   Scattered Clouds
4:15 AM 51.8 °F 48.2 °F 88% 30.06 in 5.0 mi NNW 18.4 mph - N/A   Partly Cloudy
4:35 AM 51.8 °F 48.2 °F 88% 30.06 in 5.0 mi NNW 19.6 mph 24.2 mph N/A   Clear
4:55 AM 51.8 °F 48.2 °F 88% 30.06 in 5.0 mi NNW 13.8 mph 25.3 mph N/A   Scattered Clouds
5:15 AM 50.0 °F 48.2 °F 94% 30.07 in 5.0 mi North 18.4 mph 28.8 mph N/A   Scattered Clouds
5:35 AM 50.0 °F 48.2 °F 94% 30.07 in 5.0 mi NNW 16.1 mph 23.0 mph N/A   Partly Cloudy
5:55 AM 50.0 °F 48.2 °F 94% 30.07 in 4.0 mi NNW 16.1 mph - N/A   Clear
6:15 AM 50.0 °F 48.2 °F 94% 30.08 in 4.0 mi North 12.7 mph 19.6 mph N/A   Clear
6:35 AM 51.8 °F 48.2 °F 88% 30.09 in 5.0 mi NNW 17.3 mph 23.0 mph N/A   Clear
6:55 AM 51.8 °F 48.2 °F 88% 30.10 in 4.0 mi North 10.4 mph 18.4 mph N/A   Clear
7:15 AM 51.8 °F 48.2 °F 88% 30.10 in 4.0 mi North 8.1 mph 16.1 mph N/A   Partly Cloudy
7:35 AM 51.8 °F 48.2 °F 88% 30.11 in 5.0 mi North 6.9 mph - N/A   Scattered Clouds
7:55 AM 53.6 °F 48.2 °F 82% 30.11 in 5.0 mi North 6.9 mph - N/A   Haze
8:15 AM 53.6 °F 48.2 °F 82% 30.12 in 5.0 mi North 9.2 mph - N/A   Haze
8:35 AM 55.4 °F 48.2 °F 77% 30.12 in 5.0 mi NNW 11.5 mph 16.1 mph N/A   Haze
8:55 AM 55.4 °F 48.2 °F 77% 30.12 in 5.0 mi NNW 12.7 mph - N/A   Haze
9:15 AM 55.4 °F 48.2 °F 77% 30.13 in 5.0 mi NNW 13.8 mph - N/A   Haze
9:35 AM 55.4 °F 48.2 °F 77% 30.13 in 5.0 mi NW 13.8 mph - N/A   Haze
9:55 AM 55.4 °F 48.2 °F 77% 30.13 in 5.0 mi NNW 13.8 mph - N/A   Haze
10:15 AM 55.4 °F 48.2 °F 77% 30.13 in 5.0 mi NNW 15.0 mph - N/A   Haze
10:35 AM 57.2 °F 48.2 °F 72% 30.13 in 5.0 mi NNW 16.1 mph - N/A   Haze
10:55 AM 57.2 °F 50.0 °F 77% 30.13 in 5.0 mi NNW 16.1 mph - N/A   Haze
11:15 AM 57.2 °F 50.0 °F 77% 30.14 in 5.0 mi NNW 17.3 mph 21.9 mph N/A   Haze
11:35 AM 57.2 °F 50.0 °F 77% 30.14 in 5.0 mi NNW 18.4 mph - N/A   Haze
11:55 AM 57.2 °F 50.0 °F 77% 30.14 in 5.0 mi NNW 19.6 mph - N/A   Haze
12:15 PM 57.2 °F 50.0 °F 77% 30.14 in 5.0 mi NNW 18.4 mph - N/A   Haze
12:35 PM 59.0 °F 50.0 °F 72% 30.14 in 5.0 mi NNW 17.3 mph 21.9 mph N/A   Haze
12:55 PM 57.2 °F 50.0 °F 77% 30.14 in 5.0 mi NNW 19.6 mph 25.3 mph N/A   Haze
1:15 PM 59.0 °F 50.0 °F 72% 30.14 in 5.0 mi NNW 18.4 mph 26.5 mph N/A   Haze
1:35 PM 59.0 °F 50.0 °F 72% 30.14 in 6.0 mi NW 17.3 mph 24.2 mph N/A   Haze
1:55 PM 57.2 °F 50.0 °F 77% 30.14 in 5.0 mi NNW 18.4 mph - N/A   Haze
2:15 PM 59.0 °F 50.0 °F 72% 30.14 in 5.0 mi NNW 20.7 mph 27.6 mph N/A   Haze
2:35 PM 59.0 °F 50.0 °F 72% 30.14 in 5.0 mi NNW 19.6 mph 23.0 mph N/A   Haze
2:55 PM 57.2 °F 50.0 °F 77% 30.14 in 5.0 mi North 15.0 mph 23.0 mph N/A   Haze
3:15 PM 59.0 °F 50.0 °F 72% 30.13 in 5.0 mi North 15.0 mph 24.2 mph N/A   Haze
3:35 PM 59.0 °F 50.0 °F 72% 30.12 in 5.0 mi North 15.0 mph 24.2 mph N/A   Haze
3:55 PM 59.0 °F 48.2 °F 67% 30.12 in 5.0 mi NNW 17.3 mph 25.3 mph N/A   Haze
4:15 PM 59.0 °F 48.2 °F 67% 30.11 in 5.0 mi NNW 19.6 mph 27.6 mph N/A   Haze
4:35 PM 59.0 °F 48.2 °F 67% 30.11 in 5.0 mi NNW 18.4 mph 26.5 mph N/A   Haze
4:55 PM 59.0 °F 48.2 °F 67% 30.10 in 5.0 mi NNW 16.1 mph 25.3 mph N/A   Haze
5:15 PM 59.0 °F 48.2 °F 67% 30.09 in 5.0 mi NNW 18.4 mph 24.2 mph N/A   Haze
5:35 PM 59.0 °F 48.2 °F 67% 30.09 in 5.0 mi NNW 16.1 mph 24.2 mph N/A   Haze
5:55 PM 59.0 °F 48.2 °F 67% 30.08 in 5.0 mi NNW 18.4 mph 26.5 mph N/A   Haze
6:15 PM 59.0 °F 48.2 °F 67% 30.08 in 5.0 mi NNW 18.4 mph 25.3 mph N/A   Haze
6:35 PM 57.2 °F 48.2 °F 72% 30.08 in 5.0 mi North 17.3 mph 27.6 mph N/A   Haze
6:55 PM 57.2 °F 48.2 °F 72% 30.07 in 5.0 mi North 21.9 mph 27.6 mph N/A   Haze
7:15 PM 57.2 °F 48.2 °F 72% 30.08 in 5.0 mi NNW 18.4 mph 21.9 mph N/A   Haze
7:35 PM 55.4 °F 48.2 °F 77% 30.07 in 5.0 mi NNW 18.4 mph 23.0 mph N/A   Haze
7:55 PM 55.4 °F 48.2 °F 77% 30.07 in 5.0 mi North 11.5 mph 25.3 mph N/A   Haze
8:15 PM 53.6 °F 48.2 °F 82% 30.06 in 4.0 mi NNW 20.7 mph 28.8 mph N/A   Haze
8:35 PM 53.6 °F 48.2 °F 82% 30.06 in 4.0 mi North 15.0 mph 24.2 mph N/A   Haze
8:55 PM 53.6 °F 48.2 °F 82% 30.06 in 4.0 mi NNW 16.1 mph 21.9 mph N/A   Haze
9:15 PM 53.6 °F 48.2 °F 82% 30.06 in 5.0 mi North 6.9 mph - N/A   Haze
9:35 PM 53.6 °F 48.2 °F 82% 30.06 in 5.0 mi North 6.9 mph - N/A   Haze
9:55 PM 53.6 °F 48.2 °F 82% 30.07 in 5.0 mi North 6.9 mph - N/A   Haze
10:15 PM 51.8 °F 48.2 °F 88% 30.06 in 5.0 mi North 9.2 mph - N/A   Mist
10:35 PM 51.8 °F 48.2 °F 88% 30.06 in 5.0 mi North 8.1 mph - N/A   Mist
10:55 PM 51.8 °F 48.2 °F 88% 30.06 in 4.0 mi North 5.8 mph - N/A   Mist
11:15 PM 50.0 °F 46.4 °F 87% 30.06 in 5.0 mi Calm Calm - N/A   Clear
11:35 PM 48.2 °F 46.4 °F 93% 30.05 in 5.0 mi ENE 3.5 mph - N/A   Clear
11:55 PM 48.2 °F 44.6 °F 87% 30.05 in 5.0 mi Calm Calm - N/A   Clear